ISS (ZARYA) 1 25544U 98067A 26133.42450843 .00004829 00000+0 95080-4 0 9993 2 25544 51.6310 112.1825 0007522 54.1994 305.9693 15.49203550566361 POISK 1 36086U 09060A 26133.42450843 .00004829 00000+0 95080-4 0 9991 2 36086 51.6310 112.1825 0007522 54.1994 305.9693 15.49203550566500 CSS (TIANHE) 1 48274U 21035A 26133.47815922 .00012315 00000+0 13972-3 0 9995 2 48274 41.4670 173.0841 0004122 296.9881 63.0537 15.62173368287749 ISS (NAUKA) 1 49044U 21066A 26133.42450843 .00004829 00000+0 95080-4 0 9999 2 49044 51.6310 112.1825 0007522 54.1994 305.9693 15.49203550566542 FREGAT DEB 1 49271U 11037PF 26133.27899109 .00004745 00000+0 75269-2 0 9995 2 49271 51.6373 106.7849 0930787 206.5535 148.4628 12.41355681220716 CSS (WENTIAN) 1 53239U 22085A 26133.15850889 .00011273 00000+0 12827-3 0 9994 2 53239 41.4670 175.0334 0004148 295.5863 64.4547 15.62165519286258 CSS (MENGTIAN) 1 54216U 22143A 26133.47815922 .00012315 00000+0 13972-3 0 9999 2 54216 41.4670 173.0841 0004122 296.9881 63.0537 15.62173368288192 HRC MONOBLOCK CAMERA 1 66052U 98067XR 26133.16195345 .00042805 00000+0 36213-3 0 9994 2 66052 51.6245 98.4002 0004622 46.9429 313.1954 15.69271461 32491 HTV-X1 1 66174U 25241A 26133.32599169 .00010221 00000+0 11383-3 0 9991 2 66174 51.6336 116.6970 0007557 55.6818 304.4891 15.63487431 30898 SZ-21 MODULE 1 66515U 25246C 26133.40164490 .00025413 00000+0 17878-3 0 9993 2 66515 41.4720 163.4848 0002642 125.8691 234.2398 15.73512887 28258 SHENZHOU-22 1 66645U 25272A 26133.47815922 .00012315 00000+0 13972-3 0 9994 2 66645 41.4670 173.0841 0004122 296.9881 63.0537 15.62173368288214 SOYUZ-MS 28 1 66664U 25275A 26133.42450843 .00004829 00000+0 95080-4 0 9992 2 66664 51.6310 112.1825 0007522 54.1994 305.9693 15.49203550566785 DUPLEX 1 66906U 98067XS 26133.48721174 .00022937 00000+0 28350-3 0 9999 2 66906 51.6265 104.3467 0005722 56.2077 303.9460 15.60007078 25233 ISS OBJECT XW 1 66910U 98067XW 26133.15811187 .01167530 86754-3 11472-2 0 9992 2 66910 51.6082 89.9101 0002845 141.8405 218.2811 16.10914535 25393 ISS OBJECT XY 1 66912U 98067XY 26133.27622972 .00124090 00000+0 67229-3 0 9990 2 66912 51.6222 96.8707 0006599 72.4375 287.7346 15.79146381 25300 KNACKSAT-2 1 67683U 98067XZ 26133.14399934 .00027142 00000+0 37475-3 0 9991 2 67683 51.6273 110.3103 0012516 69.1546 291.0785 15.56883677 14813 CORAL 1 67684U 98067YA 26133.33193900 .00082847 00000+0 78332-3 0 9998 2 67684 51.6244 106.3019 0015122 67.8696 292.3903 15.66127270 14884 GXIBA-1 1 67685U 98067YB 26133.43194728 .00031218 00000+0 41286-3 0 9993 2 67685 51.6267 108.4814 0014371 67.9364 292.3153 15.57930740 14863 UITMSAT-2 1 67686U 98067YC 26133.18118921 .00040273 00000+0 49210-3 0 9993 2 67686 51.6266 109.0595 0011073 50.4115 309.7854 15.59947660 14832 HMU-SAT2 1 67687U 98067YD 26133.18989194 .00029275 00000+0 39485-3 0 9994 2 67687 51.6289 109.8731 0010652 50.4266 309.7665 15.57493840 14741 LEOPARD 1 67688U 98067YE 26133.14362160 .00036408 00000+0 46183-3 0 9998 2 67688 51.6301 109.5650 0010756 48.4403 311.7510 15.59013770 14743 CREW DRAGON 12 1 67796U 26031A 26133.42450843 .00004829 00000+0 95080-4 0 9990 2 67796 51.6310 112.1825 0007522 54.1994 305.9693 15.49203550566669 PROGRESS-MS 33 1 68319U 26058A 26133.42450843 .00004829 00000+0 95080-4 0 9991 2 68319 51.6310 112.1825 0007522 54.1994 305.9693 15.49203550 8178 CYGNUS NG-24 1 68689U 26079A 26133.16648097 .00004910 00000+0 96540-4 0 9998 2 68689 51.6311 113.4598 0007519 53.2160 306.9518 15.49201567 5104 PROGRESS-MS 34 1 68837U 26093A 26133.16648097 .00004910 00000+0 96540-4 0 9999 2 68837 51.6311 113.4598 0007519 53.2160 306.9518 15.49201567 2601 TIANZHOU-10 1 69049U 26102A 26133.15850889 .00011273 00000+0 12827-3 0 9994 2 69049 41.4670 175.0334 0004148 295.5863 64.4547 15.62165519 359 CZ-7 R/B 1 69050U 26102B 26133.47591568 .00832877 75563-5 46731-3 0 9991 2 69050 41.5018 172.1570 0099428 183.7335 176.2789 16.07624920 395